#timestamp,LO_Frequency,Hit,StdDev 
1541804415.1,286047001.9,N
1541804416.0,286047001.9,N
1541804435.8,286047002.3,N
1541804455.6,286047002.6,N
1541804475.5,286047004.0,N
1541804495.3,286047002.6,N
1541804515.2,286046999.7,N
1541804535.9,286047000.2,N
1541804555.7,286047000.9,N
1541804575.6,286047002.7,N
1541804595.4,286047001.7,N
1541804615.2,286047001.8,N
1541804635.1,286047002.2,N
1541804636.0,286047002.2,N
1541804655.8,286047000.2,N
1541804675.7,286047000.9,N
1541804695.5,286046998.3,N
1541804715.3,286047001.1,N
1541804735.2,286046998.6,N
1541804755.9,286046998.9,N
1541804775.7,286047001.1,N
1541804795.6,286046998.3,N
1541804815.4,286046998.1,N
1541804835.2,286046999.5,N
1541804855.1,286046996.9,N
1541804856.0,286046996.9,N
1541804875.8,286046995.0,N
1541804895.7,286046995.8,N
1541804915.5,286046997.4,N
1541804935.3,286046995.3,N
1541804955.2,286046995.2,N
1541804975.0,286046994.9,N
1541804975.9,286046994.9,N
1541804995.7,286046993.5,N
1541805015.6,286046994.0,N
1541805035.4,286046992.0,N
1541805055.3,286046994.7,N
1541805075.1,286046992.0,N
1541805106.0,286046990.1,E
1541805115.1,286046995.4,N
1541805116.0,286046995.4,P
1541805135.8,286046998.2,P
1541805155.6,286046997.8,N
1541805175.5,286046995.1,Y
1541805195.3,286047000.8,P
1541805215.1,286046998.6,N
1541805235.9,286047001.2,N
1541805255.7,286046998.5,N
1541805275.6,286046999.1,N
1541805295.4,286046995.4,Y
1541805315.2,286046997.5,P
1541805335.1,286046995.8,P
1541805336.0,286046995.8,P
1541805355.8,286046996.8,N
1541805375.7,286046997.4,N
1541805395.5,286046995.1,Y
1541805415.3,286046998.1,P
1541805435.2,286047001.1,N
1541805455.0,286047000.1,N
1541805455.9,286047000.1,N
1541805475.7,286046998.9,N
1541805495.6,286046997.5,N
1541805515.4,286046997.6,N
1541805535.3,286046997.1,N
1541805555.1,286046996.8,N
1541805556.0,286046996.8,N
1541805575.8,286046996.5,N
1541805595.7,286046996.5,N
1541805615.5,286046996.9,N
1541805635.3,286046997.8,N
1541805655.2,286046997.6,N
1541805675.0,286046994.6,Y
1541805675.9,286046994.6,P
1541805695.8,286046996.8,N
1541805715.6,286046995.3,P
1541805735.4,286046996.6,N
1541805755.3,286046997.9,N
1541805775.1,286046997.8,N
1541805795.9,286046994.9,Y
1541805815.7,286046998.2,P
1541805835.5,286046998.1,N
1541805855.4,286046998.1,N
1541805875.2,286046998.6,N
1541805895.0,286047000.0,N
1541805895.9,286047000.0,N
1541805915.8,286047002.8,N
1541805935.6,286046999.7,N
1541805955.5,286047002.7,N
1541805975.3,286047002.3,N
1541805995.1,286047004.0,N
1541806015.9,286047003.6,N
1541806035.7,286047003.2,N
1541806055.5,286047005.1,N
1541806075.4,286047007.2,N
1541806095.2,286047004.5,N
1541806115.0,286047006.8,N
1541806116.0,286047006.8,N
1541806135.8,286047006.5,N
1541806155.6,286047008.9,N
1541806175.5,286047009.1,N
1541806195.3,286047009.1,N
1541806215.1,286047008.1,N
1541806235.9,286047008.0,N
1541806255.7,286047010.2,N
1541806275.6,286047012.4,Y
1541806295.4,286047006.6,P
1541806315.2,286047008.7,P
1541806335.1,286047008.5,P
1541806336.0,286047008.5,Y
1541806355.8,286047002.8,P
1541806375.6,286046999.7,N
1541806395.5,286046998.3,N
1541806415.3,286046999.4,N
1541806435.2,286046999.5,N
1541806455.9,286046999.1,N
1541806475.7,286046998.1,N
1541806495.6,286046998.4,N
1541806515.4,286047001.2,N
1541806535.2,286046998.3,N
1541806555.1,286046998.8,N
1541806556.0,286046998.8,N
1541806575.8,286046998.6,N
1541806595.7,286047000.5,N
1541806615.5,286047000.9,N
1541806635.3,286047000.2,N
1541806655.2,286047001.0,N
1541806675.9,286047000.4,N
1541806695.7,286047000.6,N
1541806715.6,286047001.1,N
1541806735.4,286047000.9,N
1541806755.2,286047002.1,N
1541806775.1,286047001.9,N
1541806776.0,286047001.9,N
1541806795.8,286047001.8,N
1541806815.7,286047003.3,N
1541806835.5,286047003.2,N
1541806855.3,286047005.5,N
1541806875.2,286047007.2,Y
1541806895.0,286047007.6,P
1541806895.9,286047007.6,N
1541806915.8,286047007.4,N
1541806935.6,286047007.1,N
1541806955.4,286047006.7,N
1541806975.3,286047008.7,Y
1541806995.1,286047005.9,P
1541807015.9,286047005.8,P
1541807035.7,286047005.8,P
1541807055.5,286047003.2,Y
1541807075.4,286046995.4,P
1541807095.2,286046995.4,N
1541807115.1,286046995.1,N
1541807116.0,286046995.1,N
1541807135.8,286046996.8,N
1541807155.6,286046997.8,N
1541807175.5,286046999.4,N
1541807195.3,286046997.6,N
1541807215.1,286046995.4,N
1541807235.9,286046994.9,N
1541807255.7,286046995.4,N
1541807275.6,286046996.2,N
1541807295.4,286046995.2,N
1541807315.2,286046996.0,N
1541807335.1,286046993.3,N
1541807336.0,286046993.3,N
1541807355.8,286046997.6,N
1541807375.6,286046997.1,N
1541807395.5,286046997.7,N
1541807415.3,286046996.7,N
1541807435.2,286046997.2,N
1541807455.9,286046996.5,N
1541807475.7,286046999.4,N
1541807495.6,286046999.4,N
1541807515.4,286046998.4,N
1541807535.2,286046998.8,N
1541807555.1,286047000.7,N
1541807556.0,286047000.7,N
1541807575.8,286047000.6,N
1541807595.7,286047000.8,N
1541807615.5,286047001.0,N
1541807635.3,286046998.1,N
1541807655.2,286047000.6,N
1541807675.9,286047001.1,N
1541807695.7,286047001.1,N
1541807715.6,286047000.7,N
1541807735.4,286047000.1,N
1541807755.2,286047000.2,N
1541807775.1,286047002.2,N
1541807776.0,286047002.2,N
1541807795.8,286047001.0,N
1541807815.7,286047000.2,N
1541807835.5,286047002.2,N
1541807855.3,286047002.0,N
1541807875.2,286047000.3,N
1541807895.0,286047000.7,N
1541807895.9,286047000.7,N
1541807915.8,286047000.7,N
1541807935.6,286047000.0,N
1541807955.4,286047000.8,N
1541807975.3,286047001.1,N
1541807995.1,286047000.6,N
